Regional Weather Roundup
Issued by NWS

Home | Current Version | Previous Version | Text Only | Print | Product List | Glossary On
Versions: 1 2 3 4 5 6 7 8 9 10 11 12 13 14 15 16 17 18 19 20 21 22 23 24 25 26 27 28 29 30 31 32 33 34 35 36 37 38 39 40 41 42 43 44 45 46 47 48 49 50
000
ASUS45 KSLC 262110
RWRUT

UTAH REGIONAL WEATHER ROUNDUP
NATIONAL WEATHER SERVICE SALT LAKE CITY UT
200 PM MST WED NOV 26 2014

UTZ001>011-023>025-262200-

NORTHERN UTAH

CITY           SKY/WX    TMP DP  RH WIND       PRES   REMARKS
BRIGHAM CITY   SUNNY     56  30  36 SW12      30.36S
HILL AFB       SUNNY     56  31  37 S6        30.37F
LOGAN          SUNNY     57  31  37 SE3       30.33F
OGDEN          SUNNY     57  30  35 SW9       30.36F
PROVO AIRPORT  SUNNY     52  30  43 VRB5      30.38F
SALT LAKE CITY MOSUNNY   59  29  31 CALM      30.36F
VERNAL         SUNNY     50  29  44 CALM      30.30F
WENDOVER       SUNNY     55  30  38 E7        30.35F
HEBER CITY     SUNNY     54  30  40 CALM      30.37F
WEST JORDAN    SUNNY     57  36  44 S8        30.37F

$$

UTZ012>022-026-027-262200-

SOUTHERN/CENTRAL UTAH

CITY           SKY/WX    TMP DP  RH WIND       PRES   REMARKS
BLANDING       SUNNY     53  19  26 S7        30.43R
BRYCE CANYON   SUNNY     54  20  26 NW10      30.46R
CEDAR CITY     SUNNY     59  23  25 MISG      30.39F
DELTA          SUNNY     55  27  33 SW6       30.40F
MILFORD        SUNNY     59  27  29 S10       30.38F
MOAB/CYNLANDS  SUNNY     52  18  26 N5        30.34F
PRICE          SUNNY     52  27  38 SW7       30.37F
ST GEORGE      CLEAR     54  14  20 CALM      30.37F
KANAB          SUNNY     57  18  21 SE5       30.41F

$$

REGIONAL REPORTS     COLORADO/ARIZONA

CITY           SKY/WX    TMP DP  RH WIND       PRES   REMARKS
CRAIG, CO      SUNNY     50  29  44 W12       30.29F
GRAND JUNCTION SUNNY     48  21  34 W6        30.35F
RIFLE          SUNNY     43  25  49 CALM      30.37F
MONTROSE       SUNNY     54  26  34 VRB3      30.35F
CORTEZ         SUNNY     57  24  28 W16G25    30.35F
PAGE, AZ       SUNNY     57  17  21 VRB5      30.36F
GRAND CANYON   SUNNY     61  17  18 SW8       30.43F
KINGMAN        SUNNY     66  14  13 NE7       30.33F
FLAGSTAFF      SUNNY     61  15  16 E10       30.43F

$$

REGIONAL REPORTS    NEVADA/IDAHO/WYOMING

CITY           SKY/WX    TMP DP  RH WIND       PRES   REMARKS
LAS VEGAS, NV  SUNNY     65  14  14 CALM      30.29F
ELY            SUNNY     61  19  19 CALM      30.41F
ELKO           SUNNY     58  32  37 SW5       30.37F
POCATELLO, ID  MOSUNNY   54  36  50 SW20      30.31F
BURLEY         SUNNY     58  35  42 W9        30.29F
EVANSTON, WY   MOSUNNY   42  28  57 SW17G26   30.36S
ROCK SPRINGS   MOSUNNY   46  29  51 W26G36    30.27S

$$


USA.gov is the U.S. government's official web portal to all federal, state and local government web resources and services.